CW4086 Weather Reports


time (UTC)temp
C
wind
direction
speed
KPH
gust
KPH
rain 1hr
cm
rain 24hr
cm
rain mn
cm
humidity
%
barometer
mb
20260905095104 17 19 1.6 3.2 0.00 0.00 0.00 41 1013.7
20260905094604 17 19 1.6 3.2 0.00 0.00 0.00 41 1013.7
20260905094104 17 19 1.6 3.2 0.00 0.00 0.00 41 1013.7
20260905093603 17 19 1.6 3.2 0.00 0.00 0.00 41 1013.7
20260905093103 17 19 1.6 3.2 0.00 0.00 0.00 41 1013.7
20260905092104 17 19 1.6 3.2 0.00 0.00 0.00 40 1013.7
20260905091604 17 19 1.6 3.2 0.00 0.00 0.00 39 1013.7
20260905091107 18 19 1.6 4.8 0.00 0.00 0.00 39 1013.7
20260905090604 18 19 1.6 4.8 0.00 0.00 0.00 38 1013.8
20260905090106 18 19 1.6 3.2 0.00 0.00 0.00 38 1013.7
20260905085604 17 19 1.6 3.2 0.00 0.00 0.00 39 1013.8
20260905085104 18 19 1.6 3.2 0.00 0.00 0.00 39 1013.8
20260905084604 18 19 1.6 3.2 0.00 0.00 0.00 39 1013.8
20260905084104 18 19 1.6 4.8 0.00 0.00 0.00 39 1013.8
20260905083603 18 19 1.6 4.8 0.00 0.00 0.00 38 1013.8
20260905083104 18 322 3.2 4.8 0.00 0.00 0.00 37 1013.9
20260905082604 18 284 3.2 4.8 0.00 0.00 0.00 37 1014.1
20260905082104 18 284 1.6 4.8 0.00 0.00 0.00 38 1014.2
20260905081603 18 284 3.2 4.8 0.00 0.00 0.00 38 1014.3
20260905081103 18 284 1.6 3.2 0.00 0.00 0.00 39 1014.3
20260905080604 18 284 1.6 3.2 0.00 0.00 0.00 38 1014.3
20260905080104 18 284 1.6 3.2 0.00 0.00 0.00 38 1014.3
20260905075604 18 284 1.6 3.2 0.00 0.00 0.00 38 1014.3
20260905075104 18 284 1.6 3.2 0.00 0.00 0.00 39 1014.3
20260905074604 18 284 1.6 3.2 0.00 0.00 0.00 38 1014.3
20260905074105 18 284 1.6 3.2 0.00 0.00 0.00 38 1014.3
20260905073604 18 284 1.6 3.2 0.00 0.00 0.00 38 1014.3
20260905073103 18 284 1.6 3.2 0.00 0.00 0.00 38 1014.3
20260905072104 18 284 0.0 1.6 0.00 0.00 0.00 38 1014.3
20260905071106 18 284 0.0 1.6 0.00 0.00 0.00 38 1014.3
20260905070604 18 284 0.0 1.6 0.00 0.00 0.00 38 1014.3
20260905070106 18 284 0.0 1.6 0.00 0.00 0.00 38 1014.2
20260905064104 18 284 1.6 4.8 0.00 0.00 0.00 38 1013.9
20260905063604 18 284 1.6 3.2 0.00 0.00 0.00 37 1014.1
20260905063104 18 284 1.6 3.2 0.00 0.00 0.00 37 1014.2
20260905062604 18 284 1.6 3.2 0.00 0.00 0.00 36 1014.2
20260905062104 19 284 0.0 3.2 0.00 0.00 0.00 36 1014.1
20260905061604 19 284 1.6 3.2 0.00 0.00 0.00 36 1014.1
20260905061104 19 284 1.6 3.2 0.00 0.00 0.00 36 1014.0
20260905060604 19 284 1.6 3.2 0.00 0.00 0.00 36 1014.1
20260905060104 19 284 1.6 3.2 0.00 0.00 0.00 36 1014.0
20260905055604 20 284 1.6 3.2 0.00 0.00 0.00 35 1014.0
20260905055104 20 284 0.0 3.2 0.00 0.00 0.00 35 1013.9
20260905054103 20 283 1.6 3.2 0.00 0.00 0.00 34 1013.9
20260905053603 20 283 0.0 3.2 0.00 0.00 0.00 34 1014.1
20260905053104 20 283 1.6 3.2 0.00 0.00 0.00 33 1014.1
20260905052104 20 283 1.6 3.2 0.00 0.00 0.00 32 1014.1
20260905051105 20 283 1.6 3.2 0.00 0.00 0.00 32 1014.1
20260905050603 21 283 1.6 3.2 0.00 0.00 0.00 31 1014.2
20260905045604 21 281 3.2 4.8 0.00 0.00 0.00 31 1014.2
20260905045103 21 281 1.6 4.8 0.00 0.00 0.00 31 1014.1
20260905044603 21 279 3.2 4.8 0.00 0.00 0.00 29 1014.2
20260905044105 21 278 1.6 4.8 0.00 0.00 0.00 29 1014.1
20260905043104 21 277 3.2 4.8 0.00 0.00 0.00 28 1014.0
20260905042604 21 277 1.6 3.2 0.00 0.00 0.00 28 1014.0
20260905042106 21 277 1.6 3.2 0.00 0.00 0.00 27 1014.0
20260905041604 21 277 1.6 3.2 0.00 0.00 0.00 27 1013.9
20260905040604 21 277 1.6 3.2 0.00 0.00 0.00 26 1013.9
20260905040108 21 277 0.0 1.6 0.00 0.00 0.00 27 1013.9
20260905035604 22 277 0.0 1.6 0.00 0.00 0.00 27 1013.9
20260905035104 22 277 0.0 1.6 0.00 0.00 0.00 27 1013.9
20260905034604 22 277 0.0 1.6 0.00 0.00 0.00 28 1013.8
20260905034104 22 277 0.0 0.0 0.00 0.00 0.00 31 1013.8
20260905033604 22 277 0.0 1.6 0.00 0.00 0.00 32 1013.8
20260905033105 22 277 0.0 3.2 0.00 0.00 0.00 31 1013.7
20260905032104 22 277 1.6 3.2 0.00 0.00 0.00 31 1013.4
20260905031104 22 276 0.0 3.2 0.00 0.00 0.00 31 1013.3
20260905030603 22 276 0.0 3.2 0.00 0.00 0.00 31 1013.3
20260905030108 22 276 0.0 1.6 0.00 0.00 0.00 30 1013.3
20260905025604 23 276 0.0 1.6 0.00 0.00 0.00 31 1013.2
20260905025103 23 276 0.0 4.8 0.00 0.00 0.00 30 1013.1
20260905024603 23 276 1.6 4.8 0.00 0.00 0.00 30 1012.8
20260905024104 23 278 0.0 3.2 0.00 0.00 0.00 30 1012.8
20260905023103 23 279 0.0 1.6 0.00 0.00 0.00 29 1012.8
20260905022604 24 279 0.0 1.6 0.00 0.00 0.00 30 1012.8
20260905021604 24 279 0.0 4.8 0.00 0.00 0.00 29 1012.7
20260905020604 25 280 1.6 8.0 0.00 0.00 0.00 30 1012.7
20260905020108 25 286 1.6 8.0 0.00 0.00 0.00 30 1012.7
20260905015604 25 288 1.6 8.0 0.00 0.00 0.00 30 1012.7
20260905014604 26 281 4.8 9.7 0.00 0.00 0.00 29 1012.7
20260905014104 26 282 4.8 9.7 0.00 0.00 0.00 29 1012.7
20260905013604 26 268 4.8 11.3 0.00 0.00 0.00 28 1012.7
20260905013103 27 269 4.8 11.3 0.00 0.00 0.00 27 1012.7
20260905012603 27 278 6.4 11.3 0.00 0.00 0.00 28 1012.7
20260905012104 27 286 6.4 9.7 0.00 0.00 0.00 28 1012.7
20260905011103 27 267 4.8 9.7 0.00 0.00 0.00 27 1012.7
20260905010107 27 228 3.2 14.5 0.00 0.00 0.00 27 1012.7
20260905005603 28 234 4.8 14.5 0.00 0.00 0.00 27 1012.7
20260905005104 28 229 6.4 16.1 0.00 0.00 0.00 26 1012.7
20260905004603 28 239 8.0 16.1 0.00 0.00 0.00 25 1012.7
20260905004104 28 213 6.4 14.5 0.00 0.00 0.00 26 1012.7
20260905003603 28 246 9.7 16.1 0.00 0.00 0.00 25 1012.7
20260905003104 28 253 9.7 16.1 0.00 0.00 0.00 25 1012.6
20260905002604 28 242 8.0 14.5 0.00 0.00 0.00 25 1012.6
20260905002103 28 246 8.0 12.9 0.00 0.00 0.00 25 1012.4
20260905001603 28 253 8.0 16.1 0.00 0.00 0.00 25 1012.4
20260905001104 28 271 9.7 16.1 0.00 0.00 0.00 26 1012.3
20260905000111 28 280 9.7 19.3 0.00 0.00 0.00 26 1012.4
20260904235604 28 256 11.3 19.3 0.00 0.00 0.00 25 1012.5
20260904235104 29 263 9.7 19.3 0.00 0.00 0.00 25 1012.4
20260904234604 29 268 9.7 16.1 0.00 0.00 0.00 25 1012.3
20260904234104 29 257 8.0 16.1 0.00 0.00 0.00 25 1012.3
20260904233604 29 265 8.0 19.3 0.00 0.00 0.00 25 1012.4
20260904232604 28 273 11.3 19.3 0.00 0.00 0.00 26 1012.4
20260904232105 28 249 8.0 22.5 0.00 0.00 0.00 26 1012.4
20260904231104 28 259 14.5 20.9 0.00 0.00 0.00 27 1012.5
20260904230604 29 265 9.7 19.3 0.00 0.00 0.00 27 1012.4
20260904230108 28 288 11.3 19.3 0.00 0.00 0.00 27 1012.4
20260904225604 29 266 12.9 19.3 0.00 0.00 0.00 27 1012.4
20260904225104 29 273 11.3 19.3 0.00 0.00 0.00 27 1012.4
20260904224604 29 280 11.3 20.9 0.00 0.00 0.00 27 1012.3
20260904223604 29 278 9.7 19.3 0.00 0.00 0.00 26 1012.5
20260904223104 29 289 11.3 19.3 0.00 0.00 0.00 26 1012.6
20260904222603 29 271 9.7 19.3 0.00 0.00 0.00 26 1012.7
20260904221604 29 288 9.7 22.5 0.00 0.00 0.00 26 1012.7
20260904220604 29 280 14.5 22.5 0.00 0.00 0.00 25 1012.7
20260904220105 29 277 9.7 22.5 0.00 0.00 0.00 25 1012.7
20260904215104 29 294 9.7 22.5 0.00 0.00 0.00 26 1012.7
20260904213104 28 267 8.0 16.1 0.00 0.00 0.00 25 1012.9
20260904212606 28 269 8.0 14.5 0.00 0.00 0.00 24 1013.0
20260904212104 28 261 8.0 16.1 0.00 0.00 0.00 24 1012.9
20260904211606 28 277 9.7 20.9 0.00 0.00 0.00 25 1012.9
20260904211106 28 288 11.3 20.9 0.00 0.00 0.00 24 1013.0
20260904210604 28 271 9.7 16.1 0.00 0.00 0.00 24 1013.1
20260904210107 28 275 8.0 14.5 0.00 0.00 0.00 25 1013.1
20260904205606 28 287 4.8 12.9 0.00 0.00 0.00 25 1013.1
20260904205104 28 267 8.0 12.9 0.00 0.00 0.00 26 1013.1
20260904204604 28 280 6.4 16.1 0.00 0.00 0.00 26 1013.1
20260904204104 27 292 11.3 16.1 0.00 0.00 0.00 27 1013.2
20260904203603 27 271 9.7 14.5 0.00 0.00 0.00 27 1013.1
20260904203104 27 282 8.0 14.5 0.00 0.00 0.00 28 1013.1
20260904202604 27 267 8.0 12.9 0.00 0.00 0.00 29 1013.1
20260904202104 27 296 4.8 12.9 0.00 0.00 0.00 29 1013.2
20260904201604 27 331 4.8 14.5 0.00 0.00 0.00 29 1013.2
20260904201104 27 287 9.7 19.3 0.00 0.00 0.00 30 1013.2
20260904195604 26 282 9.7 19.3 0.00 0.00 0.00 32 1013.3
20260904195104 26 232 4.8 19.3 0.00 0.00 0.00 31 1013.3
20260904194104 26 270 4.8 14.5 0.00 0.00 0.00 33 1013.4
20260904193605 26 301 8.0 16.1 0.00 0.00 0.00 34 1013.4
20260904192604 25 306 8.0 12.9 0.00 0.00 0.00 36 1013.7
20260904192104 25 289 4.8 14.5 0.00 0.00 0.00 38 1013.7
20260904191605 25 276 8.0 14.5 0.00 0.00 0.00 40 1013.8
20260904191104 24 280 3.2 12.9 0.00 0.00 0.00 39 1013.8
20260904190606 24 278 4.8 11.3 0.00 0.00 0.00 42 1013.8
20260904185604 24 320 4.8 19.3 0.00 0.00 0.00 44 1013.8
20260904185104 24 285 9.7 19.3 0.00 0.00 0.00 46 1013.9
20260904184604 23 283 6.4 12.9 0.00 0.00 0.00 47 1013.9
20260904184104 23 296 4.8 12.9 0.00 0.00 0.00 47 1014.0
20260904183604 23 265 8.0 12.9 0.00 0.00 0.00 48 1014.0
20260904183104 23 310 4.8 11.3 0.00 0.00 0.00 48 1014.0
20260904182604 23 289 4.8 12.9 0.00 0.00 0.00 48 1013.9
20260904182104 23 284 6.4 12.9 0.00 0.00 0.00 50 1014.0
20260904181603 22 283 3.2 11.3 0.00 0.00 0.00 50 1014.1
20260904181103 22 288 3.2 11.3 0.00 0.00 0.00 51 1014.1
20260904180104 22 290 4.8 11.3 0.00 0.00 0.00 54 1013.9
20260904175604 22 250 4.8 12.9 0.00 0.00 0.00 54 1014.1
20260904174604 21 299 4.8 9.7 0.00 0.00 0.00 55 1014.1
20260904174104 21 305 1.6 8.0 0.00 0.00 0.00 55 1014.1
20260904173604 21 296 3.2 11.3 0.00 0.00 0.00 56 1014.1
20260904173103 21 291 1.6 11.3 0.00 0.00 0.00 57 1014.1
20260904172604 21 313 3.2 11.3 0.00 0.00 0.00 58 1013.9
20260904171106 20 300 4.8 8.0 0.00 0.00 0.00 59 1013.9
20260904170605 20 288 4.8 8.0 0.00 0.00 0.00 59 1013.9
20260904170108 19 309 4.8 9.7 0.00 0.00 0.00 59 1013.7
20260904165604 19 291 3.2 9.7 0.00 0.00 0.00 60 1013.7
20260904165104 18 269 1.6 9.7 0.00 0.00 0.00 60 1013.7
20260904164604 18 269 3.2 8.0 0.00 0.00 0.00 61 1013.7
20260904164104 18 256 0.0 4.8 0.00 0.00 0.00 62 1013.7
20260904163604 18 256 3.2 8.0 0.00 0.00 0.00 63 1013.7
20260904163104 18 245 4.8 8.0 0.00 0.00 0.00 65 1013.7
20260904162604 18 292 1.6 4.8 0.00 0.00 0.00 66 1013.6
20260904162104 17 292 3.2 4.8 0.00 0.00 0.00 68 1013.5
20260904161603 17 292 1.6 4.8 0.00 0.00 0.00 68 1013.4
20260904161104 17 292 3.2 8.0 0.00 0.00 0.00 67 1013.3
20260904160604 17 292 1.6 8.0 0.00 0.00 0.00 69 1013.2
20260904160107 17 292 4.8 8.0 0.00 0.00 0.00 70 1013.1
20260904155604 17 299 3.2 4.8 0.00 0.00 0.00 71 1013.1
20260904154104 16 299 3.2 4.8 0.00 0.00 0.00 74 1013.2
20260904153604 16 299 3.2 4.8 0.00 0.00 0.00 73 1013.2
20260904153104 16 306 3.2 4.8 0.00 0.00 0.00 73 1013.2
20260904152103 16 306 1.6 4.8 0.00 0.00 0.00 75 1013.2
20260904151604 16 306 1.6 4.8 0.00 0.00 0.00 75 1013.2
20260904151104 16 306 0.0 3.2 0.00 0.00 0.00 74 1013.2
20260904150108 15 306 0.0 0.0 0.00 0.00 0.00 73 1013.2
20260904145604 15 306 0.0 0.0 0.00 0.00 0.00 73 1013.2
20260904145104 15 306 0.0 0.0 0.00 0.00 0.00 72 1013.2
20260904144603 14 306 0.0 0.0 0.00 0.00 0.00 71 1013.2
20260904144104 14 306 0.0 0.0 0.00 0.00 0.00 71 1013.2
20260904143603 14 306 0.0 0.0 0.00 0.00 0.00 71 1013.2
20260904143104 14 306 0.0 0.0 0.00 0.00 0.00 71 1013.2
20260904142604 13 306 0.0 0.0 0.00 0.00 0.00 69 1013.2
20260904142104 13 306 0.0 0.0 0.00 0.00 0.00 70 1013.2
20260904141604 13 306 0.0 0.0 0.00 0.00 0.00 70 1013.2
20260904140603 13 306 0.0 0.0 0.00 0.00 0.00 70 1013.0
20260904140105 13 306 0.0 0.0 0.00 0.00 0.00 69 1012.9
20260904135604 13 306 0.0 1.6 0.00 0.00 0.00 69 1012.9
20260904135104 13 306 0.0 1.6 0.00 0.00 0.00 69 1012.9
20260904134604 13 306 0.0 0.0 0.00 0.00 0.00 69 1012.7
20260904134104 13 303 0.0 0.0 0.00 0.00 0.00 69 1012.7
20260904133604 13 309 0.0 0.0 0.00 0.00 0.00 69 1012.7
20260904132605 13 309 0.0 0.0 0.00 0.00 0.00 69 1012.6
20260904132103 13 309 0.0 0.0 0.00 0.00 0.00 69 1012.7
20260904131604 13 309 0.0 1.6 0.00 0.00 0.00 69 1012.7
20260904131104 13 309 0.0 1.6 0.00 0.00 0.00 69 1012.6
20260904130605 13 309 0.0 1.6 0.00 0.00 0.00 69 1012.6
20260904130108 13 309 0.0 1.6 0.00 0.00 0.00 69 1012.6
20260904125603 13 309 0.0 1.6 0.00 0.00 0.00 69 1012.6
20260904125104 13 309 0.0 1.6 0.00 0.00 0.00 68 1012.6
20260904124603 13 309 0.0 1.6 0.00 0.00 0.00 68 1012.6
20260904123604 13 308 0.0 1.6 0.00 0.00 0.00 66 1012.5
20260904123104 13 308 0.0 1.6 0.00 0.00 0.00 66 1012.5
20260904122605 14 308 0.0 1.6 0.00 0.00 0.00 65 1012.6
20260904122105 14 308 0.0 1.6 0.00 0.00 0.00 65 1012.5
20260904121104 14 308 0.0 1.6 0.00 0.00 0.00 66 1012.5
20260904120109 15 308 0.0 1.6 0.00 0.00 0.00 65 1012.5
20260904115104 15 308 0.0 0.0 0.00 0.00 0.00 64 1012.6
20260904114104 15 308 0.0 0.0 0.00 0.00 0.00 65 1012.6
20260904113603 15 308 0.0 0.0 0.00 0.00 0.00 65 1012.6
20260904113103 15 308 0.0 0.0 0.00 0.00 0.00 65 1012.5
20260904112604 15 308 0.0 0.0 0.00 0.00 0.00 65 1012.5
20260904112103 15 308 0.0 1.6 0.00 0.00 0.00 65 1012.5
20260904111603 15 308 0.0 1.6 0.00 0.00 0.00 66 1012.5
20260904111104 15 308 0.0 1.6 0.00 0.00 0.00 66 1012.5
20260904110603 15 308 0.0 1.6 0.00 0.00 0.00 66 1012.4
20260904110108 15 308 0.0 1.6 0.00 0.00 0.00 66 1012.4
20260904105604 15 308 1.6 1.6 0.00 0.00 0.00 66 1012.4
20260904105104 15 308 0.0 0.0 0.00 0.00 0.00 66 1012.4
20260904104603 15 308 0.0 0.0 0.00 0.00 0.00 66 1012.4
20260904104104 15 308 0.0 0.0 0.00 0.00 0.00 66 1012.3
20260904103604 15 308 0.0 0.0 0.00 0.00 0.00 66 1012.3
20260904103104 15 308 0.0 1.6 0.00 0.00 0.00 66 1012.4
20260904102603 15 308 0.0 1.6 0.00 0.00 0.00 66 1012.3
20260904102103 15 308 0.0 0.0 0.00 0.00 0.00 66 1012.3
20260904101604 15 308 0.0 0.0 0.00 0.00 0.00 67 1012.3
20260904101104 15 308 0.0 0.0 0.00 0.00 0.00 66 1012.4
20260904100604 15 308 0.0 1.6 0.00 0.00 0.00 67 1012.4
20260904100104 15 308 0.0 1.6 0.00 0.00 0.00 67 1012.4
20260904095604 15 308 0.0 0.0 0.00 0.00 0.00 67 1012.3